x

South Santa Rosa Is. Ca (46069) Wave Buoy

7:50 - Mon 29th May 2017 All times are PDT. -7 hours from GMT.

  • Sig Wave height 7.9ft
  • Swell Direction
  • Peak Period 8s
  • Average Period 6s
  • Wind
    25mph, 29mph gusts
  • Sea Temp 55°f
  • Aire Temp 55°f
  • Sea Pressure 1012.5mb
  • South Santa Rosa Is. Ca
  • South Santa Rosa Is. Ca

More Historic Weather Station data

Upgrade to MSW Pro to gain access to the past 30 days of data for over 8000 Wavebouys and Weather Stations around the globe.

Join Pro

Comparision Forecast

View Surf forecast
   
lun 05/29 7:50 8ft 8s 6s 25 29 mph 1012.5mb 55f 55f
6:50 7ft 8s 6s 25 29 mph 1012.1mb 55f 55f
5:50 7ft 8s 6s 25 31 mph 1012.1mb 55f 55f
4:50 7ft 8s 6s 25 31 mph 1012.2mb 56f 55f
3:50 7ft 8s 6s 20 25 mph 1012.6mb 56f 55f
2:50 7ft 8s 6s 22 27 mph 1013.1mb 55f 55f
1:50 7ft 8s 6s 22 25 mph 1013.4mb 55f 55f
12:50 7ft 7s 6s 20 25 mph 1014mb 55f 54f
11:50 6.5ft 7s 6s 22 27 mph 1014.1mb 55f 54f
10:50 6.5ft 7s 5s 22 27 mph 1014.2mb 55f 54f
9:50 7ft 8s 6s 25 29 mph 1014.2mb 55f 54f
8:50 7ft 7s 6s 22 27 mph 1013.8mb 55f 53f
7:50 6.5ft 7s 6s 25 31 mph 1013.5mb 55f 53f
6:50 7ft 7s 6s 25 31 mph 1013.3mb 55f 54f
5:50 6.5ft 7s 6s 25 29 mph 1013.2mb 56f 54f
4:50 7ft 7s 6s 25 31 mph 1013.3mb 56f 54f
3:50 7ft 7s 6s 25 27 mph 1013.5mb 56f 54f
2:50 6.5ft 6s 5s 25 29 mph 1013.7mb 56f 54f
1:50 7ft 7s 5s 27 34 mph 1014mb 56f 55f
12:50 7ft 7s 6s 25 29 mph 1014.5mb 56f 55f
dom 05/28 11:50 7ft 7s 6s 27 34 mph 1014.9mb 56f 55f
10:50 6ft 7s 5s 29 34 mph 1015.2mb 56f 55f
9:50 6ft 7s 5s 27 31 mph 1015.1mb 56f 55f
8:50 6ft 7s 5s 25 29 mph 1015.1mb 56f 55f
7:50 6ft 6s 5s 25 29 mph 1014.9mb 56f 55f
6:50 5.5ft 7s 5s 25 29 mph 1014.9mb 57f 55f
5:50 5.5ft 6s 5s 25 29 mph 1015.4mb 56f 56f
4:50 5ft 6s 5s 22 29 mph 1015.8mb 57f 56f
3:50 5ft 6s 5s 22 27 mph 1016.3mb 57f 56f
2:50 5ft 6s 5s 20 25 mph 1016.5mb 57f 56f
1:50 5ft 10s 5s 20 22 mph 1017.1mb 57f 56f
12:50 5ft 6s 5s 20 22 mph 1017.6mb 57f 56f
11:50 5ft 6s 5s 20 25 mph 1017.6mb 57f 55f
10:50 5ft 6s 5s 20 25 mph 1017.5mb 57f 55f
9:50 5ft 6s 5s 20 25 mph 1017.4mb 57f 55f
8:50 5ft 6s 5s 22 27 mph 1017.2mb 57f 56f
7:50 5ft 5s 5s 22 29 mph 1017mb 57f 56f
6:50 5ft 5s 5s 22 27 mph 1016.9mb 57f 56f
5:50 5.5ft 10s 5s 25 29 mph 1016.3mb 57f 56f
4:50 5ft 5s 5s 22 27 mph 1016.3mb 57f 56f
3:50 5ft 5s 5s 22 27 mph 1016.2mb 57f 56f
2:50 5ft 11s 5s 22 27 mph 1016.6mb 58f 56f
1:50 5ft 11s 5s 22 25 mph 1016.9mb 58f 56f
12:50 5ft 13s 5s 22 27 mph 1017.2mb 58f 56f
sáb 05/27 11:50 5ft 5s 5s 20 25 mph 1017.5mb 58f 56f
10:50 4.5ft 10s 5s 20 25 mph 1017.8mb 58f 56f
9:50 4.5ft 12s 6s 20 25 mph 1017.6mb 58f 57f
8:50 3.5ft 12s 5s 20 25 mph 1017.3mb 58f 57f
7:50 4.5ft 10s 6s 18 25 mph 1017.4mb 57f 57f
6:50 4.5ft 14s 5s 18 22 mph 1017.7mb 57f 57f
5:50 4ft 14s 6s 18 20 mph 1018.1mb 58f 58f
4:50 3.5ft 14s 6s 16 20 mph 1018.3mb 58f 58f
3:50 4ft 13s 5s 16 18 mph 1018.6mb 58f 57f
2:50 4ft 15s 6s 16 20 mph 1018.7mb 58f 57f
1:50 4.5ft 10s 6s 16 20 mph 1018.8mb 58f 57f
12:50 4.5ft 14s 6s 16 18 mph 1019.2mb 58f 56f
11:50 4ft 11s 5s 18 22 mph 1018.9mb 57f 56f
10:50 4.5ft 10s 6s 16 20 mph 1018.9mb 57f 56f
9:50 4.5ft 14s 6s 16 20 mph 1018.7mb 57f 56f
8:50 4.5ft 10s 6s 16 18 mph 1018.5mb 57f 56f
7:50 4ft 10s 6s 16 18 mph 1018mb 58f 56f
6:50 4.5ft 11s 6s 18 20 mph 1017.4mb 58f 56f
5:50 4.5ft 15s 7s 16 18 mph 1016.9mb 58f 56f
4:50 4ft 11s 7s 16 18 mph 1016.6mb 58f 56f
3:50 4.5ft 10s 7s 13 18 mph 1016.6mb 58f 56f
2:50 4.5ft 14s 7s 13 16 mph 1016.9mb 58f 56f
1:50 5ft 10s 8s 13 16 mph 1016.9mb 58f 56f
12:50 4.5ft 11s 7s 13 16 mph 1017mb 58f 56f
vie 05/26 11:50 4.5ft 10s 7s 13 16 mph 1017mb 58f 56f
10:50 4.5ft 11s 8s 11 13 mph 1017.2mb 58f 56f
9:50 4.5ft 9s 8s 11 13 mph 1016.8mb 59f 57f
8:50 4.5ft 10s 8s 13 16 mph 1016.1mb 58f 57f
7:50 4ft 14s 9s 11 13 mph 1015.9mb 58f 57f
6:50 4.5ft 14s 9s 9 11 mph 1015.9mb 58f 58f
5:50 4ft 14s 8s 7 9 mph 1016.1mb 58f 58f
4:50 4.5ft 11s 9s 7 9 mph 1016mb 59f 58f
3:50 4.5ft 11s 9s 7 9 mph 1016mb 59f 58f
2:50 4.5ft 11s 9s 7 7 mph 1016.3mb 59f 58f
1:50 4ft 10s 9s 4 4 mph 1016.5mb 61f 58f
12:50 4.5ft 11s 9s 2 4 mph 1016.4mb 59f 58f
11:50 4.5ft 11s 9s 2 4 mph 1016.1mb 58f 58f
10:50 4.5ft 11s 9s 4 4 mph 1015.7mb 57f 57f
9:50 5ft 11s 9s 4 7 mph 1015.4mb 57f 57f
8:50 5ft 11s 9s 7 7 mph 1015mb 57f 56f
7:50 4.5ft 11s 9s 7 7 mph 1014.4mb 57f 56f
6:50 5ft 11s 9s 4 7 mph 1014mb 57f 56f
5:50 4.5ft 11s 9s 7 9 mph 1013.6mb 57f 56f
4:50 5ft 11s 9s 4 4 mph 1013.3mb 57f 56f